Time,TemperatureF,DewpointF,PressureIn,WindDirection,WindDirectionDegrees,WindSpeedMPH,WindSpeedGustMPH,Humidity,HourlyPrecipIn,Conditions,Clouds,dailyrainin,SolarRadiationWatts/m^2,SoftwareType,DateUTC
2013-03-08 00:01:00,32.0,26.0,-100.00,ESE,105,2.0,6.0,79,0.00,,,0.00,0.000000,,2013-03-08 06:01:00,
2013-03-08 00:32:00,29.0,25.0,-100.00,NE,54,0.0,4.0,86,0.00,,,0.00,0.000000,,2013-03-08 06:32:00,
2013-03-08 00:42:00,29.0,25.0,-100.00,NE,54,0.0,4.0,86,0.00,,,0.00,0.000000,,2013-03-08 06:42:00,
2013-03-08 00:52:00,29.0,25.0,-100.00,NE,54,0.0,4.0,86,0.00,,,0.00,0.000000,,2013-03-08 06:52:00,
2013-03-08 01:01:00,29.0,25.0,-100.00,NE,54,0.0,4.0,86,0.00,,,0.00,0.000000,,2013-03-08 07:01:00,
2013-03-08 01:32:00,30.0,25.0,-100.00,East,87,2.0,6.0,82,0.00,,,0.00,0.000000,,2013-03-08 07:32:00,
2013-03-08 01:42:00,30.0,25.0,-100.00,East,87,2.0,6.0,82,0.00,,,0.00,0.000000,,2013-03-08 07:42:00,
2013-03-08 01:52:00,30.0,25.0,-100.00,East,87,2.0,6.0,82,0.00,,,0.00,0.000000,,2013-03-08 07:52:00,
2013-03-08 02:01:00,30.0,25.0,-100.00,East,87,2.0,6.0,82,0.00,,,0.00,0.000000,,2013-03-08 08:01:00,
2013-03-08 02:32:00,29.0,26.0,-100.00,East,89,2.0,4.0,87,0.00,,,-99.99,0.000000,,2013-03-08 08:32:00,
2013-03-08 02:42:00,29.0,26.0,-100.00,East,89,2.0,4.0,87,0.00,,,-99.99,0.000000,,2013-03-08 08:42:00,
2013-03-08 02:52:00,29.0,26.0,-100.00,East,89,2.0,4.0,87,0.00,,,-99.99,0.000000,,2013-03-08 08:52:00,
2013-03-08 03:03:00,29.0,26.0,-100.00,East,89,2.0,4.0,87,0.00,,,-99.99,0.000000,,2013-03-08 09:03:00,
2013-03-08 03:32:00,28.0,25.0,-100.00,ENE,77,0.0,4.0,88,0.00,,,0.00,0.000000,,2013-03-08 09:32:00,
2013-03-08 03:42:00,28.0,25.0,-100.00,ENE,77,0.0,4.0,88,0.00,,,0.00,0.000000,,2013-03-08 09:42:00,
2013-03-08 03:52:00,28.0,25.0,-100.00,ENE,77,0.0,4.0,88,0.00,,,0.00,0.000000,,2013-03-08 09:52:00,
2013-03-08 04:01:00,28.0,25.0,-100.00,ENE,77,0.0,4.0,88,0.00,,,0.00,0.000000,,2013-03-08 10:01:00,
2013-03-08 04:32:00,27.0,25.0,-100.00,NE,35,2.0,2.0,92,0.00,,,-99.99,0.000000,,2013-03-08 10:32:00,
2013-03-08 04:42:00,27.0,25.0,-100.00,NE,35,2.0,2.0,92,0.00,,,-99.99,0.000000,,2013-03-08 10:42:00,
2013-03-08 04:52:00,27.0,25.0,-100.00,NE,35,2.0,2.0,92,0.00,,,-99.99,0.000000,,2013-03-08 10:52:00,
2013-03-08 05:01:00,27.0,25.0,-100.00,NE,35,2.0,2.0,92,0.00,,,-99.99,0.000000,,2013-03-08 11:01:00,
2013-03-08 05:32:00,28.0,25.0,-100.00,East,80,1.0,4.0,90,0.00,,,0.00,0.000000,,2013-03-08 11:32:00,
2013-03-08 05:42:00,28.0,25.0,-100.00,East,80,1.0,4.0,90,0.00,,,0.00,0.000000,,2013-03-08 11:42:00,
2013-03-08 05:52:00,28.0,25.0,-100.00,East,80,1.0,4.0,90,0.00,,,0.00,0.000000,,2013-03-08 11:52:00,
2013-03-08 06:01:00,28.0,25.0,-100.00,East,80,1.0,4.0,90,0.00,,,0.00,0.000000,,2013-03-08 12:01:00,
2013-03-08 06:32:00,27.0,24.0,-100.00,NE,54,1.0,6.0,89,0.00,,,0.00,0.000000,,2013-03-08 12:32:00,
2013-03-08 06:43:00,27.0,24.0,-100.00,NE,54,1.0,6.0,89,0.00,,,0.00,0.000000,,2013-03-08 12:43:00,
2013-03-08 06:53:00,27.0,24.0,-100.00,NE,54,1.0,6.0,89,0.00,,,0.00,0.000000,,2013-03-08 12:53:00,
2013-03-08 07:01:00,27.0,24.0,-100.00,NE,54,1.0,6.0,89,0.00,,,0.00,0.000000,,2013-03-08 13:01:00,
2013-03-08 07:32:00,29.0,26.0,-100.00,ENE,57,1.0,3.0,88,0.00,,,-99.99,24.000000,,2013-03-08 13:32:00,
2013-03-08 07:42:00,29.0,26.0,-100.00,ENE,57,1.0,3.0,88,0.00,,,-99.99,24.000000,,2013-03-08 13:42:00,
2013-03-08 07:52:00,29.0,26.0,-100.00,ENE,57,1.0,3.0,88,0.00,,,-99.99,24.000000,,2013-03-08 13:52:00,
2013-03-08 08:02:00,29.0,26.0,-100.00,ENE,57,1.0,3.0,88,0.00,,,-99.99,24.000000,,2013-03-08 14:02:00,
2013-03-08 08:32:00,36.0,28.0,-100.00,ESE,107,4.0,10.0,71,0.00,,,0.00,65.000000,,2013-03-08 14:32:00,
2013-03-08 08:42:00,36.0,28.0,-100.00,ESE,107,4.0,10.0,71,0.00,,,0.00,65.000000,,2013-03-08 14:42:00,
2013-03-08 08:52:00,36.0,28.0,-100.00,ESE,107,4.0,10.0,71,0.00,,,0.00,65.000000,,2013-03-08 14:52:00,
2013-03-08 09:03:00,36.0,28.0,-100.00,ESE,107,4.0,10.0,71,0.00,,,0.00,65.000000,,2013-03-08 15:03:00,
2013-03-08 09:32:00,40.0,28.0,-100.00,ESE,115,5.0,11.0,61,0.00,,,0.00,389.000000,,2013-03-08 15:32:00,
2013-03-08 09:43:00,40.0,28.0,-100.00,ESE,115,5.0,11.0,61,0.00,,,0.00,389.000000,,2013-03-08 15:43:00,
2013-03-08 09:53:00,40.0,28.0,-100.00,ESE,115,5.0,11.0,61,0.00,,,0.00,389.000000,,2013-03-08 15:53:00,
2013-03-08 10:01:00,40.0,28.0,-100.00,ESE,115,5.0,11.0,61,0.00,,,0.00,389.000000,,2013-03-08 16:01:00,
2013-03-08 10:32:00,43.0,28.0,-100.00,East,90,5.0,11.0,56,0.00,,,0.00,627.000000,,2013-03-08 16:32:00,
2013-03-08 10:42:00,43.0,28.0,-100.00,East,90,5.0,11.0,56,0.00,,,0.00,627.000000,,2013-03-08 16:42:00,
2013-03-08 10:52:00,43.0,28.0,-100.00,East,90,5.0,11.0,56,0.00,,,0.00,627.000000,,2013-03-08 16:52:00,
2013-03-08 11:02:00,43.0,28.0,-100.00,East,90,5.0,11.0,56,0.00,,,0.00,627.000000,,2013-03-08 17:02:00,
2013-03-08 11:32:00,47.0,28.0,-100.00,East,101,4.0,13.0,47,0.00,,,0.00,777.000000,,2013-03-08 17:32:00,
2013-03-08 11:42:00,47.0,28.0,-100.00,East,101,4.0,13.0,47,0.00,,,0.00,777.000000,,2013-03-08 17:42:00,
2013-03-08 11:52:00,47.0,28.0,-100.00,East,101,4.0,13.0,47,0.00,,,0.00,777.000000,,2013-03-08 17:52:00,
2013-03-08 12:02:00,47.0,28.0,-100.00,East,101,4.0,13.0,47,0.00,,,0.00,777.000000,,2013-03-08 18:02:00,
2013-03-08 12:32:00,51.0,29.0,-100.00,East,94,4.0,13.0,42,0.00,,,0.00,857.000000,,2013-03-08 18:32:00,
2013-03-08 12:42:00,51.0,29.0,-100.00,East,94,4.0,13.0,42,0.00,,,0.00,857.000000,,2013-03-08 18:42:00,
2013-03-08 12:52:00,51.0,29.0,-100.00,East,94,4.0,13.0,42,0.00,,,0.00,857.000000,,2013-03-08 18:52:00,
2013-03-08 13:01:00,51.0,29.0,-100.00,East,94,4.0,13.0,42,0.00,,,0.00,857.000000,,2013-03-08 19:01:00,
2013-03-08 13:32:00,52.0,24.0,-100.00,SE,124,7.0,12.0,33,0.00,,,0.00,859.000000,,2013-03-08 19:32:00,
2013-03-08 13:42:00,52.0,24.0,-100.00,SE,124,7.0,12.0,33,0.00,,,0.00,859.000000,,2013-03-08 19:42:00,
2013-03-08 13:52:00,52.0,24.0,-100.00,SE,124,7.0,12.0,33,0.00,,,0.00,859.000000,,2013-03-08 19:52:00,
2013-03-08 14:01:00,52.0,24.0,-100.00,SE,124,7.0,12.0,33,0.00,,,0.00,859.000000,,2013-03-08 20:01:00,
2013-03-08 14:32:00,55.0,26.0,-100.00,ESE,112,6.0,12.0,33,0.00,,,0.00,805.000000,,2013-03-08 20:32:00,
2013-03-08 14:42:00,55.0,26.0,-100.00,ESE,112,6.0,12.0,33,0.00,,,0.00,805.000000,,2013-03-08 20:42:00,
2013-03-08 14:53:00,55.0,26.0,-100.00,ESE,112,6.0,12.0,33,0.00,,,0.00,805.000000,,2013-03-08 20:53:00,
2013-03-08 15:02:00,55.0,26.0,-100.00,ESE,112,6.0,12.0,33,0.00,,,0.00,805.000000,,2013-03-08 21:02:00,
2013-03-08 15:33:00,56.0,25.0,-100.00,East,91,5.0,17.0,30,0.00,,,0.00,659.000000,,2013-03-08 21:33:00,
2013-03-08 15:42:00,56.0,25.0,-100.00,East,91,5.0,17.0,30,0.00,,,0.00,659.000000,,2013-03-08 21:42:00,
2013-03-08 15:52:00,56.0,25.0,-100.00,East,91,5.0,17.0,30,0.00,,,0.00,659.000000,,2013-03-08 21:52:00,
2013-03-08 16:01:00,56.0,25.0,-100.00,East,91,5.0,17.0,30,0.00,,,0.00,659.000000,,2013-03-08 22:01:00,
2013-03-08 16:32:00,55.0,26.0,-100.00,East,80,5.0,10.0,32,0.00,,,0.00,480.000000,,2013-03-08 22:32:00,
2013-03-08 16:42:00,55.0,26.0,-100.00,East,80,5.0,10.0,32,0.00,,,0.00,480.000000,,2013-03-08 22:42:00,
2013-03-08 16:53:00,55.0,26.0,-100.00,East,80,5.0,10.0,32,0.00,,,0.00,480.000000,,2013-03-08 22:53:00,
2013-03-08 17:01:00,55.0,26.0,-100.00,East,80,5.0,10.0,32,0.00,,,0.00,480.000000,,2013-03-08 23:01:00,
2013-03-08 17:32:00,54.0,26.0,-100.00,SE,139,3.0,8.0,34,0.00,,,0.00,231.000000,,2013-03-08 23:32:00,
2013-03-08 17:42:00,54.0,26.0,-100.00,SE,139,3.0,8.0,34,0.00,,,0.00,231.000000,,2013-03-08 23:42:00,
2013-03-08 17:53:00,54.0,26.0,-100.00,SE,139,3.0,8.0,34,0.00,,,0.00,231.000000,,2013-03-08 23:53:00,
2013-03-08 18:02:00,54.0,26.0,-100.00,SE,139,3.0,8.0,34,0.00,,,0.00,231.000000,,2013-03-09 00:02:00,
2013-03-08 18:32:00,49.0,25.0,-100.00,ESE,105,2.0,5.0,39,0.00,,,0.00,17.000000,,2013-03-09 00:32:00,
2013-03-08 18:42:00,49.0,25.0,-100.00,ESE,105,2.0,5.0,39,0.00,,,0.00,17.000000,,2013-03-09 00:42:00,
2013-03-08 18:52:00,49.0,25.0,-100.00,ESE,105,2.0,5.0,39,0.00,,,0.00,17.000000,,2013-03-09 00:52:00,
2013-03-08 19:01:00,49.0,25.0,-100.00,ESE,105,2.0,5.0,39,0.00,,,0.00,17.000000,,2013-03-09 01:01:00,
2013-03-08 21:32:00,46.0,27.0,-100.00,East,97,4.0,7.0,47,-99.99,,,0.00,0.000000,,2013-03-09 03:32:00,
2013-03-08 21:42:00,46.0,27.0,-100.00,East,97,4.0,7.0,47,-99.99,,,0.00,0.000000,,2013-03-09 03:42:00,
2013-03-08 21:52:00,46.0,27.0,-100.00,East,97,4.0,7.0,47,-99.99,,,0.00,0.000000,,2013-03-09 03:52:00,
2013-03-08 22:01:00,46.0,27.0,-100.00,East,97,4.0,7.0,47,-99.99,,,0.00,0.000000,,2013-03-09 04:01:00,
2013-03-08 22:32:00,46.0,26.0,-100.00,ESE,117,4.0,7.0,45,0.00,,,0.00,0.000000,,2013-03-09 04:32:00,
2013-03-08 22:42:00,46.0,26.0,-100.00,ESE,117,4.0,7.0,45,0.00,,,0.00,0.000000,,2013-03-09 04:42:00,
2013-03-08 22:52:00,46.0,26.0,-100.00,ESE,117,4.0,7.0,45,0.00,,,0.00,0.000000,,2013-03-09 04:52:00,
2013-03-08 23:02:00,46.0,26.0,-100.00,ESE,117,4.0,7.0,45,0.00,,,0.00,0.000000,,2013-03-09 05:02:00,
2013-03-08 23:32:00,45.0,25.0,-100.00,ESE,120,3.0,7.0,46,0.00,,,0.00,0.000000,,2013-03-09 05:32:00,
2013-03-08 23:43:00,45.0,25.0,-100.00,ESE,120,3.0,7.0,46,0.00,,,0.00,0.000000,,2013-03-09 05:43:00,
2013-03-08 23:53:00,45.0,25.0,-100.00,ESE,120,3.0,7.0,46,0.00,,,0.00,0.000000,,2013-03-09 05:53:00,